GW4332 Weather Reports


time (UTC)temp
F
wind
direction
speed
knots
gust
knots
rain 1hr
in
rain 24hr
in
rain mn
in
humidity
%
barometer
mb
20260509091030 58 109 2.6 12.2 0.00 0.00 0.00 65 1019.5
20260509090029 57 102 4.3 12.2 0.00 0.00 0.00 66 1019.5
20260509085030 57 76 5.2 11.3 0.00 0.00 0.00 67 1019.5
20260509084030 56 103 1.7 11.3 0.00 0.00 0.00 69 1019.4
20260509083029 56 130 0.9 12.2 0.00 0.00 0.00 69 1019.5
20260509082030 56 78 1.7 13.0 0.00 0.00 0.00 71 1019.6
20260509081029 56 101 4.3 13.9 0.00 0.00 0.00 72 1019.8
20260509080030 55 72 0.9 9.6 0.00 0.00 0.00 73 1019.8
20260509075030 55 178 0.0 7.8 0.00 0.00 0.00 74 1019.9
20260509074030 55 223 0.0 7.8 0.00 0.00 0.00 74 1019.9
20260509073029 55 120 2.6 10.4 0.00 0.00 0.00 75 1019.8
20260509072030 55 114 1.7 8.7 0.00 0.00 0.00 76 1019.9
20260509071029 54 118 0.9 7.8 0.00 0.00 0.00 77 1019.9
20260509070030 53 324 0.9 9.6 0.00 0.00 0.00 78 1019.9
20260509065029 53 84 0.9 7.8 0.00 0.00 0.00 79 1019.9
20260509064030 52 279 0.9 5.2 0.00 0.00 0.00 80 1020.0
20260509063029 52 68 0.0 7.0 0.00 0.00 0.00 81 1020.1
20260509062030 51 140 0.9 9.6 0.00 0.00 0.00 82 1020.0
20260509061030 51 107 0.9 6.1 0.00 0.00 0.00 82 1020.0
20260509060030 50 171 0.9 7.8 0.00 0.00 0.00 83 1020.1
20260509055030 50 155 0.0 5.2 0.00 0.00 0.00 83 1019.9
20260509054030 49 93 0.9 7.0 0.00 0.00 0.00 83 1019.8
20260509053030 49 114 1.7 7.0 0.00 0.00 0.00 83 1019.7
20260509052029 49 95 0.9 7.0 0.00 0.00 0.00 83 1019.6
20260509051030 49 113 0.0 7.0 0.00 0.00 0.00 83 1019.7
20260509050030 48 118 0.9 6.1 0.00 0.00 0.00 83 1019.6
20260509045029 48 137 0.9 7.8 0.00 0.00 0.00 83 1019.5
20260509044030 48 109 1.7 7.0 0.00 0.00 0.00 83 1019.5
20260509043030 48 113 1.7 7.0 0.00 0.00 0.00 82 1019.5
20260509042030 48 103 1.7 6.1 0.00 0.00 0.00 82 1019.5
20260509041030 48 109 1.7 6.1 0.00 0.00 0.00 81 1019.4
20260509040029 48 159 1.7 7.8 0.00 0.00 0.00 81 1019.4
20260509035030 49 119 1.7 6.1 0.00 0.00 0.00 80 1019.5
20260509034030 49 104 2.6 6.1 0.00 0.00 0.00 80 1019.5
20260509033029 49 103 2.6 5.2 0.00 0.00 0.00 79 1019.4
20260509032030 49 103 1.7 5.2 0.00 0.00 0.00 79 1019.5
20260509031030 49 105 3.5 7.0 0.00 0.00 0.00 78 1019.5
20260509030029 50 106 3.5 6.1 0.00 0.00 0.00 78 1019.5
20260509025030 50 98 3.5 6.1 0.00 0.00 0.00 78 1019.5
20260509024030 50 98 3.5 6.1 0.00 0.00 0.00 77 1019.5
20260509023030 51 102 2.6 5.2 0.00 0.00 0.00 77 1019.6
20260509022030 51 106 1.7 3.5 0.00 0.00 0.00 77 1019.6
20260509021029 51 112 1.7 3.5 0.00 0.00 0.00 76 1019.5
20260509020030 51 104 0.9 2.6 0.00 0.00 0.00 76 1019.6
20260509015030 51 108 1.7 5.2 0.00 0.00 0.00 75 1019.6
20260509014029 51 121 0.9 5.2 0.00 0.00 0.00 75 1019.6
20260509013030 52 95 0.9 4.3 0.00 0.00 0.00 74 1019.6
20260509012029 52 160 0.0 3.5 0.00 0.00 0.00 74 1019.6
20260509011029 52 136 0.9 6.1 0.00 0.00 0.00 74 1019.6
20260509010030 52 112 0.9 6.1 0.00 0.00 0.00 73 1019.6
20260509005030 53 130 1.7 7.0 0.00 0.00 0.00 73 1019.6
20260509004029 53 98 0.9 7.0 0.00 0.00 0.00 73 1019.5
20260509003030 53 105 1.7 6.1 0.00 0.00 0.00 72 1019.5
20260509002029 53 149 0.9 7.8 0.00 0.00 0.00 72 1019.5
20260509001029 53 182 0.9 7.0 0.00 0.00 0.00 71 1019.4
20260509000030 54 145 1.7 7.8 0.00 0.00 0.00 71 1019.3
20260508235030 54 122 0.9 7.8 0.00 0.00 0.00 71 1019.3
20260508234029 54 125 0.9 7.8 0.00 0.00 0.00 70 1019.2
20260508233030 54 237 0.9 7.0 0.00 0.00 0.00 70 1019.3
20260508232030 55 183 0.9 5.2 0.00 0.00 0.00 69 1019.4
20260508231029 55 123 0.9 5.2 0.00 0.00 0.00 69 1019.4
20260508230030 55 102 1.7 5.2 0.00 0.00 0.00 68 1019.3
20260508225030 56 87 0.9 7.0 0.00 0.00 0.00 68 1019.4
20260508224029 56 121 1.7 6.1 0.00 0.00 0.00 67 1019.5
20260508223030 56 114 2.6 7.8 0.00 0.00 0.00 66 1019.5
20260508222030 57 129 0.9 6.1 0.00 0.00 0.00 66 1019.5
20260508221029 57 106 0.9 7.8 0.00 0.00 0.00 65 1019.5
20260508220030 57 149 0.0 6.1 0.00 0.00 0.00 65 1019.5
20260508215030 58 55 0.9 7.0 0.00 0.00 0.00 64 1019.4
20260508214029 58 95 0.9 6.1 0.00 0.00 0.00 64 1019.4
20260508213030 59 106 1.7 6.1 0.00 0.00 0.00 62 1019.3
20260508212029 59 122 0.0 7.0 0.00 0.00 0.00 62 1019.2
20260508211030 59 93 0.9 7.8 0.00 0.00 0.00 61 1019.3
20260508210029 59 151 0.0 3.5 0.00 0.00 0.00 61 1019.2
20260508205030 60 116 1.7 7.0 0.00 0.00 0.00 61 1019.1
20260508204030 59 104 2.6 6.1 0.00 0.00 0.00 62 1019.1
20260508203029 59 86 2.6 3.5 0.00 0.00 0.00 61 1019.1
20260508202030 60 85 1.7 2.6 0.00 0.00 0.00 60 1019.0
20260508201029 60 69 2.6 3.5 0.00 0.00 0.00 59 1019.0
20260508200030 61 57 3.5 4.3 0.00 0.00 0.00 59 1018.9
20260508195030 61 58 2.6 3.5 0.00 0.00 0.00 57 1018.9
20260508194030 62 67 1.7 3.5 0.00 0.00 0.00 56 1018.9
20260508193030 62 59 2.6 3.5 0.00 0.00 0.00 56 1018.7
20260508192029 63 57 1.7 5.2 0.00 0.00 0.00 55 1018.6
20260508191030 63 94 2.6 7.0 0.00 0.00 0.00 50 1018.5
20260508190029 64 107 1.7 6.1 0.00 0.00 0.00 50 1018.4
20260508185030 64 105 1.7 7.0 0.00 0.00 0.00 49 1018.2
20260508184030 65 106 1.7 6.1 0.00 0.00 0.00 48 1018.1
20260508183029 65 105 1.7 7.0 0.00 0.00 0.00 48 1018.1
20260508182030 65 89 0.9 3.5 0.00 0.00 0.00 47 1018.0
20260508181029 65 71 0.9 3.5 0.00 0.00 0.00 47 1018.0
20260508180030 65 85 1.7 3.5 0.00 0.00 0.00 46 1017.9
20260508175030 65 79 0.9 2.6 0.00 0.00 0.00 46 1017.8
20260508174030 65 81 0.9 2.6 0.00 0.00 0.00 48 1017.8
20260508173030 65 77 0.9 1.7 0.00 0.00 0.00 47 1017.9
20260508172029 65 95 0.0 1.7 0.00 0.00 0.00 48 1017.8
20260508171030 65 133 0.9 1.7 0.00 0.00 0.00 47 1017.7
20260508170030 65 91 1.7 6.1 0.00 0.00 0.00 48 1017.7
20260508165029 65 100 1.7 6.1 0.00 0.00 0.00 47 1017.7
20260508164030 65 73 0.0 3.5 0.00 0.00 0.00 47 1017.6
20260508163029 65 101 0.9 6.1 0.00 0.00 0.00 46 1017.5
20260508162030 65 121 1.7 9.6 0.00 0.00 0.00 46 1017.5
20260508161029 65 98 0.0 6.1 0.00 0.00 0.00 46 1017.6
20260508160030 65 118 0.9 7.8 0.00 0.00 0.00 46 1017.6
20260508155030 66 120 0.9 7.8 0.00 0.00 0.00 46 1017.6
20260508154030 66 91 0.9 6.1 0.00 0.00 0.00 46 1017.7
20260508153029 66 99 1.7 7.8 0.00 0.00 0.00 47 1017.8
20260508152030 66 98 0.9 3.5 0.00 0.00 0.00 46 1017.8
20260508151029 66 61 1.7 6.1 0.00 0.00 0.00 45 1017.9
20260508150030 66 83 1.7 9.6 0.00 0.00 0.00 46 1017.8
20260508145030 67 82 3.5 7.8 0.00 0.00 0.00 45 1017.8
20260508144030 67 57 1.7 7.0 0.00 0.00 0.00 43 1017.8
20260508143030 68 105 2.6 10.4 0.00 0.00 0.00 42 1017.9
20260508142029 68 58 2.6 9.6 0.00 0.00 0.00 44 1017.9
20260508141030 67 88 3.5 10.4 0.00 0.00 0.00 45 1018.0
20260508140030 67 86 3.5 10.4 0.00 0.00 0.00 45 1018.0
20260508135030 67 87 2.6 10.4 0.00 0.00 0.00 44 1018.0
20260508134029 67 106 2.6 9.6 0.00 0.00 0.00 46 1018.1
20260508133030 67 119 1.7 10.4 0.00 0.00 0.00 46 1018.1
20260508132029 66 153 1.7 11.3 0.00 0.00 0.00 47 1018.1
20260508131030 66 105 4.3 15.6 0.00 0.00 0.00 49 1018.2
20260508130029 65 60 1.7 8.7 0.00 0.00 0.00 50 1018.2
20260508125029 64 86 0.0 9.6 0.00 0.00 0.00 52 1018.3
20260508124030 62 124 1.7 7.0 0.00 0.00 0.00 53 1018.3
20260508123030 61 81 5.2 12.2 0.00 0.00 0.00 52 1018.3
20260508122030 62 111 2.6 12.2 0.00 0.00 0.00 53 1018.3
20260508121030 62 91 6.1 12.2 0.00 0.00 0.00 53 1018.4
20260508120030 62 110 2.6 8.7 0.00 0.00 0.00 53 1018.3
20260508115030 63 149 2.6 14.8 0.00 0.00 0.00 53 1018.4
20260508114029 63 104 3.5 13.0 0.00 0.00 0.00 56 1018.4
20260508113030 62 103 3.5 13.0 0.00 0.00 0.00 56 1018.4
20260508112029 61 91 5.2 17.4 0.00 0.00 0.00 59 1018.6
20260508111030 60 107 4.3 15.6 0.00 0.00 0.00 59 1018.5
20260508110029 60 60 2.6 13.9 0.00 0.00 0.00 58 1018.6
20260508105030 60 121 5.2 20.9 0.00 0.00 0.00 60 1018.6
20260508104029 59 100 4.3 13.0 0.00 0.00 0.00 61 1018.7
20260508103030 59 111 4.3 18.2 0.00 0.00 0.00 62 1018.7
20260508102029 58 226 0.9 12.2 0.00 0.00 0.00 64 1018.7
20260508101029 58 320 0.9 17.4 0.00 0.00 0.00 64 1018.7
20260508100030 58 111 1.7 18.2 0.00 0.00 0.00 65 1018.7
20260508095029 57 137 1.7 15.6 0.00 0.00 0.00 66 1018.8
20260508094030 57 270 0.9 13.9 0.00 0.00 0.00 66 1018.8
20260508093029 56 185 1.7 16.5 0.00 0.00 0.00 67 1018.8
20260508092030 56 102 1.7 13.0 0.00 0.00 0.00 67 1018.8